• In Österreich
  • Länderverzeichnis
  • Für 7 Tage
  • Wassertemperatur
  • Satellitenkarten
  • Wetterkarte
  • News
  • Widgets
  • user-avatar
    Anmelden

    Stündliche Wetter Marki

    Heute, 24 Februar, Samstag

    Zeit Temperatur Niederschläge Wind Luftdruck Luftfeuchtigkeit
    00:00 -6°C° 0 mm 2 m/S 758 mmHg 52%
    01:00 -6°C° 0 mm 2 m/S 758 mmHg 52%
    02:00 -7°C° 0,1 mm 3 m/S 758 mmHg 59%
    03:00 -7°C° 0,1 mm 3 m/S 757 mmHg 67%
    04:00 -7°C° 0,1 mm 3 m/S 757 mmHg 74%
    05:00 -7°C° 0,2 mm 3 m/S 757 mmHg 76%
    06:00 -8°C° 0,2 mm 4 m/S 757 mmHg 79%
    07:00 -8°C° 0,2 mm 4 m/S 758 mmHg 81%
    08:00 -10°C° 0,1 mm 5 m/S 758 mmHg 76%
    09:00 -10°C° 0,1 mm 6 m/S 759 mmHg 71%
    10:00 -11°C° 0,1 mm 7 m/S 759 mmHg 66%
    11:00 -11°C° 0 mm 7 m/S 760 mmHg 60%
    12:00 -11°C° 0 mm 7 m/S 760 mmHg 54%
    13:00 -9°C° 0 mm 7 m/S 760 mmHg 48%
    14:00 -11°C° 0 mm 7 m/S 761 mmHg 50%
    15:00 -11°C° 0 mm 7 m/S 761 mmHg 51%
    16:00 -11°C° 0 mm 7 m/S 761 mmHg 52%
    17:00 -11°C° 0 mm 6 m/S 762 mmHg 55%
    18:00 -12°C° 0 mm 6 m/S 762 mmHg 58%
    19:00 -12°C° 0 mm 6 m/S 763 mmHg 60%
    20:00 -12°C° 0 mm 6 m/S 763 mmHg 62%
    21:00 -14°C° 0 mm 6 m/S 763 mmHg 63%
    22:00 -13°C° 0 mm 5 m/S 763 mmHg 64%
    23:00 -13°C° 0 mm 5 m/S 764 mmHg 65%

    Morgen, 25 Februar, Sonntag

    Zeit Temperatur Niederschläge Wind Luftdruck Luftfeuchtigkeit
    00:00 -14°C° 0 mm 5 m/S 764 mmHg 65%
    01:00 -14°C° 0 mm 5 m/S 764 mmHg 66%
    02:00 -14°C° 0 mm 4 m/S 764 mmHg 67%
    03:00 -14°C° 0 mm 4 m/S 764 mmHg 69%
    04:00 -14°C° 0 mm 4 m/S 764 mmHg 70%
    05:00 -14°C° 0 mm 4 m/S 764 mmHg 71%
    06:00 -15°C° 0 mm 4 m/S 764 mmHg 73%
    07:00 -15°C° 0 mm 4 m/S 764 mmHg 74%
    08:00 -14°C° 0 mm 4 m/S 764 mmHg 70%
    09:00 -14°C° 0 mm 4 m/S 764 mmHg 67%
    10:00 -12°C° 0 mm 4 m/S 764 mmHg 63%
    11:00 -11°C° 0 mm 4 m/S 764 mmHg 59%
    12:00 -10°C° 0 mm 3 m/S 764 mmHg 56%
    13:00 -9°C° 0 mm 3 m/S 764 mmHg 52%
    14:00 -9°C° 0 mm 3 m/S 764 mmHg 52%
    15:00 -9°C° 0 mm 3 m/S 763 mmHg 52%
    16:00 -9°C° 0 mm 3 m/S 763 mmHg 53%
    17:00 -9°C° 0 mm 3 m/S 763 mmHg 55%
    18:00 -10°C° 0 mm 3 m/S 763 mmHg 58%
    19:00 -10°C° 0 mm 3 m/S 764 mmHg 60%
    20:00 -12°C° 0 mm 3 m/S 764 mmHg 62%
    21:00 -12°C° 0 mm 3 m/S 764 mmHg 63%
    22:00 -12°C° 0 mm 3 m/S 764 mmHg 65%
    23:00 -12°C° 0 mm 3 m/S 764 mmHg 66%

    übermorgen, 26 Februar, Montag

    Zeit Temperatur Niederschläge Wind Luftdruck Luftfeuchtigkeit
    00:00 -13°C° 0 mm 3 m/S 764 mmHg 67%
    01:00 -13°C° 0 mm 3 m/S 764 mmHg 68%
    02:00 -13°C° 0 mm 3 m/S 764 mmHg 69%
    03:00 -14°C° 0 mm 3 m/S 763 mmHg 70%
    04:00 -14°C° 0 mm 3 m/S 763 mmHg 71%
    05:00 -14°C° 0 mm 3 m/S 763 mmHg 71%
    06:00 -14°C° 0 mm 3 m/S 763 mmHg 71%
    07:00 -15°C° 0 mm 3 m/S 763 mmHg 72%
    08:00 -14°C° 0 mm 3 m/S 763 mmHg 68%
    09:00 -14°C° 0 mm 3 m/S 763 mmHg 64%
    10:00 -13°C° 0 mm 3 m/S 763 mmHg 60%
    11:00 -13°C° 0 mm 3 m/S 763 mmHg 57%
    12:00 -12°C° 0 mm 3 m/S 763 mmHg 54%
    13:00 -10°C° 0 mm 3 m/S 762 mmHg 51%
    14:00 -10°C° 0 mm 3 m/S 762 mmHg 52%
    15:00 -10°C° 0 mm 3 m/S 762 mmHg 52%
    16:00 -10°C° 0 mm 3 m/S 761 mmHg 53%
    17:00 -12°C° 0 mm 3 m/S 761 mmHg 55%
    18:00 -12°C° 0 mm 4 m/S 761 mmHg 57%
    19:00 -12°C° 0 mm 4 m/S 761 mmHg 59%
    20:00 -12°C° 0 mm 3 m/S 761 mmHg 61%
    21:00 -12°C° 0 mm 3 m/S 761 mmHg 62%
    22:00 -13°C° 0 mm 3 m/S 761 mmHg 64%
    23:00 -13°C° 0 mm 3 m/S 761 mmHg 66%

    27 Februar, Dienstag

    Zeit Temperatur Niederschläge Wind Luftdruck Luftfeuchtigkeit
    00:00 -12°C° 0 mm 2 m/S 761 mmHg 68%
    01:00 -12°C° 0 mm 2 m/S 760 mmHg 69%
    02:00 -13°C° 0 mm 2 m/S 760 mmHg 71%
    03:00 -13°C° 0 mm 2 m/S 760 mmHg 73%
    04:00 -14°C° 0 mm 3 m/S 760 mmHg 74%
    05:00 -14°C° 0 mm 3 m/S 760 mmHg 75%
    06:00 -14°C° 0 mm 3 m/S 760 mmHg 75%
    07:00 -16°C° 0 mm 4 m/S 760 mmHg 76%
    08:00 -15°C° 0 mm 4 m/S 760 mmHg 69%
    09:00 -14°C° 0 mm 5 m/S 760 mmHg 63%
    10:00 -14°C° 0 mm 5 m/S 760 mmHg 57%
    11:00 -14°C° 0 mm 6 m/S 760 mmHg 55%
    12:00 -14°C° 0 mm 6 m/S 760 mmHg 52%
    13:00 -12°C° 0 mm 6 m/S 759 mmHg 50%
    14:00 -12°C° 0 mm 6 m/S 759 mmHg 51%
    15:00 -12°C° 0 mm 6 m/S 759 mmHg 52%
    16:00 -12°C° 0 mm 6 m/S 759 mmHg 53%
    17:00 -14°C° 0 mm 6 m/S 760 mmHg 56%
    18:00 -14°C° 0 mm 6 m/S 760 mmHg 59%
    19:00 -15°C° 0 mm 6 m/S 760 mmHg 62%
    20:00 -15°C° 0 mm 6 m/S 760 mmHg 64%
    21:00 -16°C° 0 mm 6 m/S 760 mmHg 66%
    22:00 -16°C° 0 mm 6 m/S 761 mmHg 68%
    23:00 -17°C° 0 mm 6 m/S 761 mmHg 69%

    28 Februar, Mittwoch

    Zeit Temperatur Niederschläge Wind Luftdruck Luftfeuchtigkeit
    00:00 -17°C° 0 mm 6 m/S 761 mmHg 69%
    01:00 -17°C° 0 mm 5 m/S 761 mmHg 70%
    02:00 -17°C° 0 mm 5 m/S 761 mmHg 71%
    03:00 -18°C° 0 mm 5 m/S 761 mmHg 72%
    04:00 -18°C° 0 mm 5 m/S 760 mmHg 73%
    05:00 -18°C° 0 mm 5 m/S 761 mmHg 73%
    06:00 -18°C° 0 mm 5 m/S 761 mmHg 74%
    07:00 -18°C° 0 mm 5 m/S 761 mmHg 75%
    08:00 -17°C° 0 mm 5 m/S 761 mmHg 72%
    09:00 -17°C° 0 mm 5 m/S 761 mmHg 70%
    10:00 -15°C° 0 mm 5 m/S 761 mmHg 67%
    11:00 -15°C° 0 mm 5 m/S 761 mmHg 65%
    12:00 -14°C° 0 mm 5 m/S 760 mmHg 64%
    13:00 -14°C° 0 mm 5 m/S 760 mmHg 62%
    14:00 -14°C° 0,1 mm 5 m/S 760 mmHg 64%
    15:00 -14°C° 0,1 mm 5 m/S 760 mmHg 66%
    16:00 -14°C° 0,1 mm 5 m/S 760 mmHg 67%
    17:00 -14°C° 0,1 mm 4 m/S 760 mmHg 69%
    18:00 -14°C° 0,1 mm 4 m/S 760 mmHg 71%
    19:00 -15°C° 0,1 mm 4 m/S 760 mmHg 73%
    20:00 -15°C° 0 mm 4 m/S 760 mmHg 73%
    21:00 -14°C° 0 mm 3 m/S 760 mmHg 73%
    22:00 -14°C° 0 mm 3 m/S 760 mmHg 73%
    23:00 -13°C° 0 mm 2 m/S 760 mmHg 74%

    1 März, Donnerstag

    Zeit Temperatur Niederschläge Wind Luftdruck Luftfeuchtigkeit
    00:00 -13°C° 0 mm 2 m/S 759 mmHg 75%
    01:00 -14°C° 0 mm 2 m/S 759 mmHg 75%
    02:00 -14°C° 0 mm 2 m/S 759 mmHg 77%
    03:00 -14°C° 0 mm 2 m/S 759 mmHg 78%
    04:00 -12°C° 0 mm 1 m/S 759 mmHg 80%
    05:00 -12°C° 0 mm 1 m/S 758 mmHg 80%
    06:00 -12°C° 0 mm 1 m/S 758 mmHg 81%
    07:00 -12°C° 0 mm 1 m/S 758 mmHg 81%
    08:00 -12°C° 0 mm 1 m/S 758 mmHg 75%
    09:00 -11°C° 0 mm 1 m/S 758 mmHg 69%
    10:00 -10°C° 0 mm 0 m/S 758 mmHg 63%
    11:00 -10°C° 0 mm 0 m/S 757 mmHg 60%
    12:00 -9°C° 0 mm 0 m/S 757 mmHg 56%
    13:00 -9°C° 0 mm 0 m/S 756 mmHg 53%
    14:00 -9°C° 0 mm 0 m/S 756 mmHg 53%
    15:00 -9°C° 0 mm 0 m/S 756 mmHg 53%
    16:00 -9°C° 0 mm 0 m/S 755 mmHg 53%
    17:00 -9°C° 0 mm 1 m/S 755 mmHg 55%
    18:00 -9°C° 0 mm 1 m/S 755 mmHg 58%
    19:00 -10°C° 0 mm 1 m/S 755 mmHg 61%
    20:00 -10°C° 0 mm 1 m/S 755 mmHg 63%
    21:00 -10°C° 0 mm 1 m/S 755 mmHg 66%
    22:00 -10°C° 0 mm 1 m/S 754 mmHg 68%
    23:00 -13°C° 0 mm 2 m/S 754 mmHg 70%
    Mehr zeigen